Погода в Христофоровке

Россия / Сахалинская область     46°52′04″N   142°45′12″E
темп.,
°C
ветер,
м/с
пор.,
м/с
влажн.,
%
обл.,
%
осадки,
мм/ч
давл.,
гПа
погр.,
м
29 сентября, ср
ср2923:00+14ю3693100 0.0 1018149
02:00+14ю239562 0.0 101753
05:00+13ююз229528 0.0 101722
08:00+13ю12965 0.0 101729
11:00+17ююз358330 0.0 1017474
14:00+19ю467350 0.0 1016605
17:00+17ю4673100 0.0 1015409
20:00+13ююв2294100 0.0 101520
30 сентября, чт
чт3023:00+12вюв2294100 0.0 101422
02:00+12в2293100 0.0 101158
05:00+13в2297100 0.0 101070
08:00+13юв2498100 0.9 1009163
11:00+13вюв4997100 3.1 1007473
14:00+14вюв41097100 4.3 1003717
17:00+13св4697100 13.6 1001305
20:00+13ссз369692 0.6 1002225
1 октября, пт
пт123:00+11сз25955 0.6 1003125
02:00+11сз37952 0.0 1005198
05:00+11зсз24963 0.0 100691
08:00+11зсз23930 0.0 100860
11:00+15сз24742 0.0 1009326
14:00+18юз23585 0.0 1009928
17:00+17юв336694 0.0 1008414
20:00+11в358391 0.0 101098
2 октября, сб
сб223:00+11всв2277100 0.0 101063
02:00+12св1176100 0.1 101038
05:00+12ссв2288100 0.5 101056
08:00+12св1295100 0.8 101055
11:00+13всв2389100 0.9 1010254
14:00+13всв2380100 0.1 1009392
17:00+14всв2372100 0.1 1009512
20:00+11ссв118396 0.0 101034
3 октября, вс
вс323:00+8ссз338123 0.0 101179
02:00+8сз247840 0.0 1011103
05:00+8сз498080 0.0 1012220
08:00+7сз348275 0.0 101493
11:00+13сз46571 0.0 10151131
14:00+14зсз67445 0.0 10152087
17:00+13зсз69535 0.0 10171668
20:00+8з36705 0.0 1020264